sat.trackr.live / text

‹ back to catalog

ONEWEB-0620

NORAD 55161 · 2023-004X

PAYLOAD ACTIVE UNKNOWN

§ Identity

Operator
Country
UK
Launch date
2023-01-10
Launch site
AFETR
Launch vehicle
Mass (kg)
RCS (m²)

Purposes: comms

External: N2YO · Heavens-Above · Gunter

§ Orbital elements

Epoch: 2026-05-25T02:19:05.430432Z

Period
109.80 min
Inclination
87.8910°
Eccentricity
0.0001582
Mean motion
13.11418878 rev/d
Perigee alt
1,216.5 km
Apogee alt
1,218.9 km
Semi-major
7,595.8 km
B*
-2.3923e-4
RAAN
25.6717°
Arg perigee
88.3780°
Mean anomaly
271.7529°
Rev number
16,280

§ Raw data

ONEWEB-06201 55161U 23004X   26145.09659063 -.00000072  00000+0 -23923-3 0  99952 55161  87.8910  25.6717 0001582  88.3780 271.7529 13.11418878162803

JSON: /api/v1/satellites/55161 · /tle

For live sub-satellite position, see the globe view (requires WebGL).

§ Visibility from observer

Set your observer location to see the next 7 days of passes ≥ 10°. The values pass through the URL so the page stays shareable.

No JS? Fill the form by hand. The geolocation button needs JavaScript.